Location: Unspecified
(0.0000°N, 0.0000°E)
Time: 03:49:21
(UTC+01:00)

Vanguard 1 - Visible Passes

Search period start: 12 December 2017 00:00
Search period end: 22 December 2017 00:00
Orbit: 650 x 3833 km, 34.2° (Epoch: 10 December)

Date Brightness Start Highest point End Pass type
(mag) Time Alt. Az. Time Alt. Az. Time Alt. Az.
12 Dec 13.9 01:59:13 10° SSE 02:01:09 10° SSE 02:03:11 10° SSE visible
12 Dec 13.8 04:14:37 10° SSW 04:29:39 35° SE 04:49:31 10° E visible
13 Dec 13.8 02:17:30 10° S 02:23:54 14° SSE 02:31:48 10° SE visible
13 Dec 13.6 04:35:13 10° SSW 04:51:33 44° SE 05:13:07 10° ENE visible
13 Dec 10.2 19:25:48 10° WNW 19:30:17 48° SW 19:34:43 10° SE visible
14 Dec 13.7 02:37:17 10° S 02:46:22 19° SSE 02:58:26 10° ESE visible
14 Dec 13.3 04:55:56 10° SW 05:13:17 55° SE 05:36:03 10° ENE visible
14 Dec 11.5 19:47:35 10° W 19:51:18 24° SW 19:55:08 10° SSE visible
15 Dec 13.6 02:57:23 10° SSW 03:08:29 25° SE 03:24:02 10° E visible
15 Dec 13.1 05:16:46 10° SW 05:34:54 68° SE 05:58:26 10° ENE visible
15 Dec 12.1 20:10:19 10° WSW 20:12:28 13° SSW 20:14:42 10° S visible
16 Dec 13.5 03:17:40 10° SSW 03:30:18 33° SE 03:48:39 10° E visible
16 Dec 13.0 05:37:49 10° SW 05:56:32 82° SE 06:20:23 10° NE visible
17 Dec 13.7 01:23:57 10° SSE 01:26:08 10° SSE 01:28:29 10° SE visible
17 Dec 13.2 03:38:06 10° SSW 03:51:53 42° SE 04:12:26 10° ENE visible
17 Dec 12.9 05:59:04 10° SW 06:18:13 83° NW 06:42:01 10° NE visible
18 Dec 13.5 01:41:41 10° S 01:48:16 15° SE 01:56:49 10° ESE visible
18 Dec 13.0 03:58:41 10° SW 04:13:20 54° SE 04:35:30 10° ENE visible
18 Dec 12.9 06:20:36 10° WSW 06:40:01 69° NW 07:03:24 10° NE visible
19 Dec 13.4 02:01:15 10° S 02:10:04 22° SE 02:22:41 10° E visible
19 Dec 12.7 04:19:25 10° SW 04:34:45 68° SE 04:58:01 10° ENE visible
20 Dec 13.2 02:21:16 10° SSW 02:31:35 30° SE 02:47:25 10° E visible
20 Dec 12.6 04:40:21 10° SW 04:56:14 83° SE 05:20:05 10° NE visible
21 Dec 12.9 02:41:31 10° SSW 02:52:53 40° SE 03:11:17 10° ENE visible
21 Dec 12.6 05:01:31 10° WSW 05:17:51 81° NW 05:41:49 10° NE visible
